Time,TemperatureF,DewpointF,PressureIn,WindDirection,WindDirectionDegrees,WindSpeedMPH,WindSpeedGustMPH,Humidity,HourlyPrecipIn,Conditions,Clouds,dailyrainin,SolarRadiationWatts/m^2,SoftwareType,DateUTC
2017-07-22 00:05:00,-999.9,-99.9,29.89,West,275,0.0,-999.0,-999,-99.99,,,0.00,0,weatherlink.com 1.10,2017-07-22 04:05:00,
2017-07-22 00:21:00,-999.9,-99.9,29.89,West,275,0.0,-999.0,-999,-99.99,,,0.00,0,weatherlink.com 1.10,2017-07-22 04:21:00,
2017-07-22 00:36:00,-999.9,-99.9,29.89,SW,221,0.0,-999.0,-999,-99.99,,,0.00,0,weatherlink.com 1.10,2017-07-22 04:36:00,
2017-07-22 00:51:00,-999.9,-99.9,29.89,SSW,206,0.0,-999.0,-999,-99.99,,,0.00,0,weatherlink.com 1.10,2017-07-22 04:51:00,
2017-07-22 01:06:00,-999.9,-99.9,29.88,SSW,198,0.0,-999.0,-999,-99.99,,,0.00,0,weatherlink.com 1.10,2017-07-22 05:06:00,
2017-07-22 01:21:00,-999.9,-99.9,29.88,WSW,253,0.0,-999.0,-999,-99.99,,,0.00,0,weatherlink.com 1.10,2017-07-22 05:21:00,
2017-07-22 01:36:00,-999.9,-99.9,29.87,WSW,238,0.0,-999.0,-999,-99.99,,,0.00,0,weatherlink.com 1.10,2017-07-22 05:36:00,
2017-07-22 01:51:00,-999.9,-99.9,29.87,WSW,244,0.0,-999.0,-999,-99.99,,,0.00,0,weatherlink.com 1.10,2017-07-22 05:51:00,
2017-07-22 02:06:00,-999.9,-99.9,29.87,WSW,244,0.0,-999.0,-999,-99.99,,,0.00,0,weatherlink.com 1.10,2017-07-22 06:06:00,
2017-07-22 02:21:00,-999.9,-99.9,29.87,WSW,244,0.0,-999.0,-999,-99.99,,,0.00,0,weatherlink.com 1.10,2017-07-22 06:21:00,
2017-07-22 02:36:00,-999.9,-99.9,29.87,WSW,244,0.0,-999.0,-999,-99.99,,,0.00,0,weatherlink.com 1.10,2017-07-22 06:36:00,
2017-07-22 02:51:00,-999.9,-99.9,29.86,WSW,244,0.0,-999.0,-999,-99.99,,,0.00,0,weatherlink.com 1.10,2017-07-22 06:51:00,
2017-07-22 03:06:00,-999.9,-99.9,29.86,WSW,244,0.0,-999.0,-999,-99.99,,,0.00,0,weatherlink.com 1.10,2017-07-22 07:06:00,
2017-07-22 03:21:00,-999.9,-99.9,29.86,WSW,244,0.0,-999.0,-999,-99.99,,,0.00,0,weatherlink.com 1.10,2017-07-22 07:21:00,
2017-07-22 03:36:00,-999.9,-99.9,29.86,WSW,244,0.0,-999.0,-999,-99.99,,,0.00,0,weatherlink.com 1.10,2017-07-22 07:36:00,
2017-07-22 03:52:00,-999.9,-99.9,29.86,WSW,244,0.0,-999.0,-999,-99.99,,,0.00,0,weatherlink.com 1.10,2017-07-22 07:52:00,
2017-07-22 04:07:00,-999.9,-99.9,29.85,WSW,244,0.0,-999.0,-999,-99.99,,,0.00,0,weatherlink.com 1.10,2017-07-22 08:07:00,
2017-07-22 04:22:00,-999.9,-99.9,29.86,SSW,202,0.0,-999.0,-999,-99.99,,,0.00,0,weatherlink.com 1.10,2017-07-22 08:22:00,
2017-07-22 04:37:00,-999.9,-99.9,29.86,SSW,202,0.0,-999.0,-999,-99.99,,,0.00,0,weatherlink.com 1.10,2017-07-22 08:37:00,
2017-07-22 04:52:00,-999.9,-99.9,29.86,SSW,202,0.0,-999.0,-999,-99.99,,,0.00,0,weatherlink.com 1.10,2017-07-22 08:52:00,
2017-07-22 05:07:00,-999.9,-99.9,29.86,SSW,202,0.0,-999.0,-999,-99.99,,,0.00,0,weatherlink.com 1.10,2017-07-22 09:07:00,
2017-07-22 05:22:00,-999.9,-99.9,29.86,SSW,202,0.0,-999.0,-999,-99.99,,,0.00,0,weatherlink.com 1.10,2017-07-22 09:22:00,
2017-07-22 05:37:00,-999.9,-99.9,29.87,SSW,202,0.0,-999.0,-999,-99.99,,,0.00,0,weatherlink.com 1.10,2017-07-22 09:37:00,
2017-07-22 05:52:00,-999.9,-99.9,29.87,North,-9999,-999.9,-999.0,-999,-99.99,,,0.00,,weatherlink.com 1.10,2017-07-22 09:52:00,
2017-07-22 06:07:00,-999.9,-99.9,29.87,North,-9999,-999.9,-999.0,-999,-99.99,,,0.00,,weatherlink.com 1.10,2017-07-22 10:07:00,
2017-07-22 06:22:00,-999.9,-99.9,29.87,North,-9999,-999.9,-999.0,-999,-99.99,,,0.00,,weatherlink.com 1.10,2017-07-22 10:22:00,
2017-07-22 06:37:00,-999.9,-99.9,29.87,North,-9999,-999.9,-999.0,-999,-99.99,,,0.00,,weatherlink.com 1.10,2017-07-22 10:37:00,
2017-07-22 06:52:00,-999.9,-99.9,29.87,North,-9999,-999.9,-999.0,-999,-99.99,,,0.00,,weatherlink.com 1.10,2017-07-22 10:52:00,
2017-07-22 07:08:00,-999.9,-99.9,29.87,North,-9999,-999.9,-999.0,-999,-99.99,,,0.00,,weatherlink.com 1.10,2017-07-22 11:08:00,
2017-07-22 07:23:00,-999.9,-99.9,29.88,North,-9999,-999.9,-999.0,-999,-99.99,,,0.00,,weatherlink.com 1.10,2017-07-22 11:23:00,
2017-07-22 07:38:00,-999.9,-99.9,29.88,North,-9999,-999.9,-999.0,-999,-99.99,,,0.00,,weatherlink.com 1.10,2017-07-22 11:38:00,
2017-07-22 07:53:00,-999.9,-99.9,29.88,North,-9999,-999.9,-999.0,-999,-99.99,,,0.00,,weatherlink.com 1.10,2017-07-22 11:53:00,
2017-07-22 08:08:00,-999.9,-99.9,29.88,North,-9999,-999.9,-999.0,-999,-99.99,,,0.00,,weatherlink.com 1.10,2017-07-22 12:08:00,
2017-07-22 08:23:00,-999.9,-99.9,29.88,North,-9999,-999.9,-999.0,-999,-99.99,,,0.00,,weatherlink.com 1.10,2017-07-22 12:23:00,
2017-07-22 08:38:00,-999.9,-99.9,29.89,North,-9999,-999.9,-999.0,-999,-99.99,,,0.00,,weatherlink.com 1.10,2017-07-22 12:38:00,
2017-07-22 08:53:00,-999.9,-99.9,29.89,North,-9999,-999.9,-999.0,-999,-99.99,,,0.00,,weatherlink.com 1.10,2017-07-22 12:53:00,
2017-07-22 09:08:00,-999.9,-99.9,29.89,North,-9999,-999.9,-999.0,-999,-99.99,,,0.00,,weatherlink.com 1.10,2017-07-22 13:08:00,
2017-07-22 09:23:00,-999.9,-99.9,29.89,North,-9999,-999.9,-999.0,-999,-99.99,,,0.00,,weatherlink.com 1.10,2017-07-22 13:23:00,
2017-07-22 09:38:00,-999.9,-99.9,29.88,North,-9999,-999.9,-999.0,-999,-99.99,,,0.00,,weatherlink.com 1.10,2017-07-22 13:38:00,
2017-07-22 09:53:00,-999.9,-99.9,29.88,North,-9999,-999.9,-999.0,-999,-99.99,,,0.00,,weatherlink.com 1.10,2017-07-22 13:53:00,
2017-07-22 10:08:00,-999.9,-99.9,29.88,North,-9999,-999.9,-999.0,-999,-99.99,,,0.00,,weatherlink.com 1.10,2017-07-22 14:08:00,
2017-07-22 10:23:00,-999.9,-99.9,29.88,North,-9999,-999.9,-999.0,-999,-99.99,,,0.00,,weatherlink.com 1.10,2017-07-22 14:23:00,
2017-07-22 10:39:00,-999.9,-99.9,29.88,North,-9999,-999.9,-999.0,-999,-99.99,,,0.00,,weatherlink.com 1.10,2017-07-22 14:39:00,
2017-07-22 10:54:00,-999.9,-99.9,29.88,North,-9999,-999.9,-999.0,-999,-99.99,,,0.00,,weatherlink.com 1.10,2017-07-22 14:54:00,
2017-07-22 11:09:00,-999.9,-99.9,29.88,North,-9999,-999.9,-999.0,-999,-99.99,,,0.00,,weatherlink.com 1.10,2017-07-22 15:09:00,
2017-07-22 11:24:00,-999.9,-99.9,29.87,ESE,112,2.0,-999.0,-999,-99.99,,,0.00,791,weatherlink.com 1.10,2017-07-22 15:24:00,
2017-07-22 11:39:00,-999.9,-99.9,29.87,East,98,1.0,-999.0,-999,-99.99,,,0.00,807,weatherlink.com 1.10,2017-07-22 15:39:00,
2017-07-22 11:54:00,-999.9,-99.9,29.87,East,93,0.0,-999.0,-999,-99.99,,,0.00,826,weatherlink.com 1.10,2017-07-22 15:54:00,
2017-07-22 12:09:00,-999.9,-99.9,29.86,SE,138,2.0,-999.0,-999,-99.99,,,0.00,835,weatherlink.com 1.10,2017-07-22 16:09:00,
2017-07-22 12:24:00,-999.9,-99.9,29.86,ENE,77,3.0,-999.0,-999,-99.99,,,0.00,844,weatherlink.com 1.10,2017-07-22 16:24:00,
2017-07-22 12:39:00,-999.9,-99.9,29.85,ENE,65,1.0,-999.0,-999,-99.99,,,0.00,877,weatherlink.com 1.10,2017-07-22 16:39:00,
2017-07-22 12:54:00,-999.9,-99.9,29.85,ENE,65,1.0,-999.0,-999,-99.99,,,0.00,867,weatherlink.com 1.10,2017-07-22 16:54:00,
2017-07-22 13:09:00,-999.9,-99.9,29.85,South,173,1.0,-999.0,-999,-99.99,,,0.00,877,weatherlink.com 1.10,2017-07-22 17:09:00,
2017-07-22 13:24:00,-999.9,-99.9,29.84,SE,131,1.0,-999.0,-999,-99.99,,,0.00,830,weatherlink.com 1.10,2017-07-22 17:24:00,
2017-07-22 13:39:00,-999.9,-99.9,29.83,ESE,120,1.0,-999.0,-999,-99.99,,,0.00,840,weatherlink.com 1.10,2017-07-22 17:39:00,
2017-07-22 13:54:00,-999.9,-99.9,29.82,ESE,113,4.0,-999.0,-999,-99.99,,,0.00,849,weatherlink.com 1.10,2017-07-22 17:54:00,
2017-07-22 14:09:00,-999.9,-99.9,29.82,ENE,61,1.0,-999.0,-999,-99.99,,,0.00,796,weatherlink.com 1.10,2017-07-22 18:09:00,
2017-07-22 14:25:00,-999.9,-99.9,29.82,ENE,69,4.0,-999.0,-999,-99.99,,,0.00,679,weatherlink.com 1.10,2017-07-22 18:25:00,
2017-07-22 14:40:00,-999.9,-99.9,29.81,East,90,2.0,-999.0,-999,-99.99,,,0.00,682,weatherlink.com 1.10,2017-07-22 18:40:00,
2017-07-22 14:55:00,-999.9,-99.9,29.81,South,185,6.0,-999.0,-999,-99.99,,,0.00,649,weatherlink.com 1.10,2017-07-22 18:55:00,
2017-07-22 15:10:00,-999.9,-99.9,29.80,ESE,107,4.0,-999.0,-999,-99.99,,,0.00,406,weatherlink.com 1.10,2017-07-22 19:10:00,
2017-07-22 15:25:00,-999.9,-99.9,29.80,SSW,200,6.0,-999.0,-999,-99.99,,,0.00,494,weatherlink.com 1.10,2017-07-22 19:25:00,
2017-07-22 15:40:00,-999.9,-99.9,29.79,ENE,73,0.0,-999.0,-999,-99.99,,,0.00,366,weatherlink.com 1.10,2017-07-22 19:40:00,
2017-07-22 15:55:00,-999.9,-99.9,29.79,ENE,61,3.0,-999.0,-999,-99.99,,,0.00,429,weatherlink.com 1.10,2017-07-22 19:55:00,
2017-07-22 16:10:00,-999.9,-99.9,29.79,East,88,1.0,-999.0,-999,-99.99,,,0.00,348,weatherlink.com 1.10,2017-07-22 20:10:00,
2017-07-22 16:25:00,-999.9,-99.9,29.79,East,94,1.0,-999.0,-999,-99.99,,,0.00,339,weatherlink.com 1.10,2017-07-22 20:25:00,
2017-07-22 16:40:00,-999.9,-99.9,29.78,East,84,7.0,-999.0,-999,-99.99,,,0.00,573,weatherlink.com 1.10,2017-07-22 20:40:00,
2017-07-22 16:55:00,-999.9,-99.9,29.78,ESE,109,2.0,-999.0,-999,-99.99,,,0.00,325,weatherlink.com 1.10,2017-07-22 20:55:00,
2017-07-22 17:11:00,-999.9,-99.9,29.78,ENE,78,2.0,-999.0,-999,-99.99,,,0.00,487,weatherlink.com 1.10,2017-07-22 21:11:00,
2017-07-22 17:25:00,-999.9,-99.9,29.77,SSE,158,2.0,-999.0,-999,-99.99,,,0.00,121,weatherlink.com 1.10,2017-07-22 21:25:00,
2017-07-22 17:41:00,-999.9,-99.9,29.76,ESE,116,5.0,-999.0,-999,-99.99,,,0.00,91,weatherlink.com 1.10,2017-07-22 21:41:00,
2017-07-22 17:56:00,-999.9,-99.9,29.76,ENE,77,2.0,-999.0,-999,-99.99,,,0.00,74,weatherlink.com 1.10,2017-07-22 21:56:00,
2017-07-22 18:11:00,-999.9,-99.9,29.76,NNE,15,2.0,-999.0,-999,-99.99,,,0.00,62,weatherlink.com 1.10,2017-07-22 22:11:00,
2017-07-22 18:26:00,-999.9,-99.9,29.75,ESE,109,4.0,-999.0,-999,-99.99,,,0.00,49,weatherlink.com 1.10,2017-07-22 22:26:00,
2017-07-22 18:41:00,-999.9,-99.9,29.75,ESE,104,0.0,-999.0,-999,-99.99,,,0.00,7,weatherlink.com 1.10,2017-07-22 22:41:00,
2017-07-22 18:56:00,-999.9,-99.9,29.76,SE,128,0.0,-999.0,-999,-99.99,,,0.00,0,weatherlink.com 1.10,2017-07-22 22:56:00,
2017-07-22 19:11:00,-999.9,-99.9,29.76,South,172,0.0,-999.0,-999,-99.99,,,0.04,0,weatherlink.com 1.10,2017-07-22 23:11:00,
2017-07-22 19:26:00,-999.9,-99.9,29.75,NE,38,0.0,-999.0,-999,-99.99,,,0.06,0,weatherlink.com 1.10,2017-07-22 23:26:00,
2017-07-22 19:41:00,-999.9,-99.9,29.77,SSE,158,1.0,-999.0,-999,-99.99,,,0.12,0,weatherlink.com 1.10,2017-07-22 23:41:00,
2017-07-22 19:56:00,-999.9,-99.9,29.77,ENE,63,2.0,-999.0,-999,-99.99,,,0.30,0,weatherlink.com 1.10,2017-07-22 23:56:00,
2017-07-22 20:11:00,-999.9,-99.9,29.79,West,279,1.0,-999.0,-999,-99.99,,,0.34,0,weatherlink.com 1.10,2017-07-23 00:11:00,
2017-07-22 20:26:00,-999.9,-99.9,29.78,West,279,1.0,-999.0,-999,-99.99,,,0.37,0,weatherlink.com 1.10,2017-07-23 00:26:00,
2017-07-22 20:41:00,-999.9,-99.9,29.77,West,279,1.0,-999.0,-999,-99.99,,,0.37,0,weatherlink.com 1.10,2017-07-23 00:41:00,
2017-07-22 20:57:00,-999.9,-99.9,29.77,NNE,19,0.0,-999.0,-999,-99.99,,,0.37,0,weatherlink.com 1.10,2017-07-23 00:57:00,
2017-07-22 21:12:00,-999.9,-99.9,29.76,ENE,61,0.0,-999.0,-999,-99.99,,,0.37,0,weatherlink.com 1.10,2017-07-23 01:12:00,
2017-07-22 21:27:00,-999.9,-99.9,29.76,ENE,61,0.0,-999.0,-999,-99.99,,,0.37,0,weatherlink.com 1.10,2017-07-23 01:27:00,
2017-07-22 21:42:00,-999.9,-99.9,29.76,ENE,61,0.0,-999.0,-999,-99.99,,,0.37,0,weatherlink.com 1.10,2017-07-23 01:42:00,
2017-07-22 21:57:00,-999.9,-99.9,29.76,ENE,61,0.0,-999.0,-999,-99.99,,,0.38,0,weatherlink.com 1.10,2017-07-23 01:57:00,
2017-07-22 22:12:00,-999.9,-99.9,29.76,East,81,0.0,-999.0,-999,-99.99,,,0.38,0,weatherlink.com 1.10,2017-07-23 02:12:00,
2017-07-22 22:27:00,-999.9,-99.9,29.75,East,82,0.0,-999.0,-999,-99.99,,,0.38,0,weatherlink.com 1.10,2017-07-23 02:27:00,
2017-07-22 22:42:00,-999.9,-99.9,29.75,East,82,0.0,-999.0,-999,-99.99,,,0.38,0,weatherlink.com 1.10,2017-07-23 02:42:00,
2017-07-22 22:57:00,-999.9,-99.9,29.74,East,82,1.0,-999.0,-999,-99.99,,,0.38,0,weatherlink.com 1.10,2017-07-23 02:57:00,
2017-07-22 23:12:00,-999.9,-99.9,29.73,East,82,0.0,-999.0,-999,-99.99,,,0.38,0,weatherlink.com 1.10,2017-07-23 03:12:00,
2017-07-22 23:27:00,-999.9,-99.9,29.73,East,79,0.0,-999.0,-999,-99.99,,,0.38,0,weatherlink.com 1.10,2017-07-23 03:27:00,
2017-07-22 23:43:00,-999.9,-99.9,29.72,East,88,1.0,-999.0,-999,-99.99,,,0.38,0,weatherlink.com 1.10,2017-07-23 03:43:00,